Location: �clusier
(49.9361°N, 2.7869°E)
Time: 00:07:30
(UTC+00:00)

Cosmos 1331 Rocket - Pass Details

Date: 26 October 2021
Orbit: 748 x 778 km, 74.0° (Epoch: 07 December)

Event Time Altitude Azimuth Distance (km) Brightness Sun altitude
Rises 05:01:48 0° 341° (NNW) 3,232 7.0 -14.5°
Reaches altitude 10° 05:04:37 10° 355° (N) 2,308 6.4 -14.1°
Maximum altitude 05:08:52 24° 50° (NE) 1,537 6.1 -13.4°
Drops below altitude 10° 05:13:07 10° 104° (ESE) 2,313 7.9 -12.7°
Sets 05:15:56 0° 118° (ESE) 3,241 8.6 -12.3°
